sat.trackr.live / text

‹ back to catalog

STARLINK-32235

NORAD 60739 · 2024-152V

PAYLOAD ACTIVE UNKNOWN

§ Identity

Operator
Country
US
Launch date
2024-08-28
Launch site
AFETR
Launch vehicle
Mass (kg)
RCS (m²)

Purposes: comms

External: N2YO · Heavens-Above · Gunter

§ Orbital elements

Epoch: 2026-05-24T18:01:16.316256Z

Period
94.11 min
Inclination
53.1612°
Eccentricity
0.0001172
Mean motion
15.30197053 rev/d
Perigee alt
474.4 km
Apogee alt
476.0 km
Semi-major
6,853.4 km
B*
-6.8803e-5
RAAN
275.3097°
Arg perigee
95.9389°
Mean anomaly
264.1746°
Rev number
9,844

§ Raw data

STARLINK-322351 60739U 24152V   26144.75088329 -.00002396  00000+0 -68803-4 0  99982 60739  53.1612 275.3097 0001172  95.9389 264.1746 15.30197053 98441

JSON: /api/v1/satellites/60739 · /tle

For live sub-satellite position, see the globe view (requires WebGL).

§ Visibility from observer

Set your observer location to see the next 7 days of passes ≥ 10°. The values pass through the URL so the page stays shareable.

No JS? Fill the form by hand. The geolocation button needs JavaScript.